カタログに戻る

STARLINK-5224

運用中通信VLEO
NORAD 55397·PAYLOAD·🇺🇸 United States

打ち上げ Jan 31, 2023 から Vandenberg Space Force Base

Loading…

次のパス (今後24時間)

TLE

最新Source: CelesTrak SupGP

元期: Sep 15, 2026, 02:21 UTC

1 55397C 23014G   26258.09840278  .00734620  00000+0  58716-1 0  2587
2 55397  69.9995 287.0386 0003133 267.1993 183.9712 14.99784202    17

AllMySatでSTARLINK-5224をリアルタイム追跡

Download on the App Store